GFSNIL_prec_precacc_018.txt.gz
Total_Precipitation_Accumulation
0.03 0.05 0.06 0.06 0.04 0.04 0.04 0.03 0.02 0.01 0.01 0.01 0.00 0.00 0.00 0.00 0.00 0.00 0.00 0.00 0.00 0.00
0.04 0.07 0.06 0.06 0.05 0.04 0.04 0.04 0.04 0.02 0.01 0.01 0.00 0.00 0.00 0.00 0.00 0.00 0.00 0.00 0.00 0.00
0.05 0.07 0.06 0.05 0.04 0.04 0.05 0.04 0.02 0.01 0.01 0.01 0.00 0.00 0.00 0.00 0.00 0.00 0.00 0.00 0.00 0.00
0.04 0.05 0.05 0.05 0.03 0.03 0.03 0.03 0.02 0.02 0.01 0.01 0.00 0.00 0.00 0.00 0.00 0.00 0.00 0.00 0.00 0.00
0.03 0.03 0.04 0.04 0.04 0.03 0.03 0.02 0.02 0.02 0.02 0.02 0.03 0.02 0.00 0.00 0.00 0.00 0.00 0.00 0.00 0.00
0.04 0.04 0.04 0.04 0.03 0.02 0.01 0.02 0.02 0.02 0.01 0.00 0.00 0.00 0.00 0.00 0.00 0.00 0.00 0.00 0.00 0.00
0.04 0.04 0.03 0.03 0.02 0.02 0.02 0.02 0.02 0.01 0.02 0.03 0.02 0.00 0.00 0.00 0.00 0.00 0.00 0.00 0.00 0.00
0.03 0.03 0.02 0.02 0.03 0.02 0.02 0.01 0.00 0.01 0.01 0.01 0.01 0.00 0.00 0.00 0.00 0.00 0.00 0.00 0.00 0.00
0.02 0.02 0.03 0.03 0.03 0.03 0.04 0.06 0.05 0.04 0.05 0.03 0.01 0.00 0.00 0.00 0.00 0.00 0.00 0.00 0.00 0.00
0.07 0.05 0.05 0.04 0.06 0.05 0.03 0.05 0.12 0.09 0.02 0.00 0.00 0.00 0.00 0.00 0.00 0.00 0.00 0.00 0.00 0.00
0.40 0.32 0.25 0.18 0.16 0.20 0.15 0.08 0.04 0.02 0.01 0.00 0.00 0.00 0.00 0.00 0.00 0.00 0.00 0.00 0.00 0.00
0.43 0.45 0.55 0.50 0.46 0.38 0.30 0.16 0.10 0.06 0.01 0.00 0.00 0.00 0.00 0.00 0.00 0.00 0.00 0.00 0.00 0.00
0.50 0.44 0.47 0.41 0.27 0.19 0.13 0.03 0.01 0.00 0.00 0.00 0.00 0.00 0.00 0.00 0.00 0.00 0.00 0.00 0.00 0.00
0.26 0.24 0.12 0.07 0.02 0.01 0.00 0.00 0.00 0.00 0.00 0.00 0.00 0.00 0.00 0.00 0.00 0.00 0.00 0.00 0.00 0.00

GFSNIL_prec_precacc_024.txt.gz
Total_Precipitation_Accumulation
0.05 0.08 0.11 0.13 0.10 0.10 0.09 0.10 0.11 0.09 0.07 0.07 0.05 0.03 0.02 0.02 0.01 0.00 0.00 0.00 0.00 0.00
0.05 0.08 0.08 0.09 0.09 0.10 0.09 0.10 0.13 0.11 0.08 0.06 0.05 0.03 0.02 0.02 0.01 0.00 0.00 0.00 0.00 0.00
0.05 0.07 0.07 0.07 0.05 0.06 0.09 0.09 0.08 0.08 0.08 0.06 0.04 0.02 0.01 0.02 0.01 0.01 0.02 0.02 0.01 0.01
0.04 0.06 0.07 0.07 0.05 0.05 0.07 0.07 0.07 0.07 0.07 0.05 0.02 0.01 0.01 0.01 0.01 0.01 0.01 0.01 0.01 0.01
0.03 0.04 0.05 0.05 0.07 0.07 0.07 0.05 0.05 0.05 0.04 0.04 0.04 0.04 0.04 0.04 0.05 0.05 0.04 0.04 0.04 0.03
0.04 0.05 0.06 0.06 0.06 0.06 0.06 0.06 0.05 0.04 0.03 0.01 0.01 0.02 0.04 0.05 0.06 0.07 0.09 0.08 0.06 0.03
0.07 0.08 0.07 0.07 0.06 0.05 0.05 0.05 0.04 0.05 0.05 0.06 0.06 0.07 0.08 0.07 0.06 0.05 0.04 0.03 0.02 0.01
0.06 0.08 0.07 0.06 0.07 0.05 0.04 0.03 0.04 0.08 0.14 0.16 0.15 0.09 0.09 0.08 0.08 0.07 0.08 0.07 0.06 0.04
0.05 0.06 0.07 0.07 0.07 0.06 0.07 0.08 0.09 0.11 0.13 0.15 0.17 0.20 0.12 0.07 0.06 0.07 0.08 0.09 0.07 0.04
0.08 0.09 0.10 0.11 0.12 0.11 0.10 0.12 0.21 0.20 0.14 0.11 0.09 0.13 0.10 0.11 0.12 0.14 0.13 0.09 0.05 0.02
0.47 0.38 0.38 0.40 0.38 0.30 0.28 0.25 0.18 0.18 0.22 0.27 0.29 0.31 0.26 0.19 0.13 0.09 0.06 0.04 0.02 0.01
0.66 0.61 0.87 0.99 0.81 0.68 0.61 0.51 0.48 0.39 0.34 0.32 0.29 0.21 0.13 0.09 0.07 0.04 0.02 0.01 0.00 0.00
0.77 0.61 0.69 0.62 0.54 0.54 0.48 0.46 0.36 0.30 0.22 0.16 0.10 0.07 0.04 0.03 0.02 0.00 0.00 0.00 0.00 0.00
0.47 0.55 0.47 0.48 0.31 0.30 0.23 0.15 0.12 0.09 0.06 0.03 0.02 0.01 0.00 0.00 0.00 0.00 0.00 0.00 0.00 0.00

GFSNIL_prec_precacc_030.txt.gz
Total_Precipitation_Accumulation
0.05 0.08 0.11 0.14 0.11 0.10 0.10 0.11 0.15 0.15 0.16 0.17 0.18 0.17 0.16 0.14 0.11 0.08 0.06 0.04 0.02 0.01
0.05 0.08 0.08 0.10 0.10 0.11 0.10 0.12 0.15 0.14 0.15 0.16 0.17 0.17 0.17 0.16 0.13 0.09 0.05 0.03 0.01 0.01
0.05 0.07 0.07 0.07 0.05 0.06 0.09 0.10 0.10 0.10 0.12 0.14 0.15 0.14 0.13 0.12 0.09 0.08 0.06 0.05 0.05 0.05
0.04 0.06 0.07 0.07 0.05 0.05 0.07 0.07 0.07 0.08 0.09 0.09 0.09 0.09 0.09 0.10 0.17 0.24 0.30 0.31 0.30 0.17
0.03 0.04 0.05 0.05 0.07 0.07 0.07 0.05 0.05 0.05 0.04 0.04 0.06 0.08 0.09 0.08 0.08 0.09 0.14 0.20 0.24 0.24
0.04 0.05 0.06 0.06 0.06 0.06 0.06 0.06 0.05 0.04 0.03 0.02 0.02 0.03 0.05 0.07 0.09 0.13 0.20 0.24 0.24 0.24
0.07 0.08 0.07 0.07 0.06 0.05 0.05 0.05 0.04 0.05 0.05 0.06 0.06 0.07 0.09 0.08 0.07 0.06 0.06 0.06 0.07 0.08
0.06 0.08 0.07 0.06 0.07 0.05 0.04 0.04 0.04 0.08 0.14 0.16 0.16 0.19 0.18 0.17 0.17 0.17 0.20 0.21 0.24 0.28
0.05 0.06 0.08 0.09 0.09 0.09 0.09 0.10 0.10 0.12 0.14 0.17 0.20 0.33 0.28 0.24 0.25 0.27 0.27 0.29 0.31 0.31
0.08 0.09 0.12 0.13 0.16 0.14 0.12 0.14 0.23 0.24 0.19 0.15 0.14 0.25 0.21 0.20 0.19 0.22 0.23 0.20 0.16 0.12
0.47 0.39 0.39 0.41 0.39 0.31 0.30 0.28 0.24 0.27 0.37 0.44 0.49 0.47 0.33 0.26 0.18 0.14 0.12 0.10 0.09 0.05
0.66 0.62 0.87 1.01 0.86 0.74 0.70 0.67 0.77 0.63 0.55 0.65 0.71 0.54 0.39 0.22 0.15 0.12 0.08 0.05 0.01 0.00
0.77 0.64 0.75 0.70 0.76 0.71 0.63 0.68 0.66 0.69 0.56 0.49 0.40 0.25 0.16 0.08 0.05 0.02 0.01 0.00 0.00 0.00
0.55 0.71 0.67 0.69 0.53 0.61 0.53 0.40 0.35 0.31 0.27 0.17 0.08 0.02 0.01 0.00 0.00 0.00 0.00 0.00 0.00 0.00

GFSNIL_prec_precacc_033.txt.gz
Total_Precipitation_Accumulation
0.05 0.08 0.11 0.14 0.11 0.10 0.10 0.11 0.15 0.15 0.17 0.18 0.19 0.19 0.19 0.18 0.16 0.15 0.13 0.11 0.08 0.06
0.05 0.08 0.08 0.10 0.10 0.11 0.10 0.12 0.15 0.14 0.15 0.17 0.18 0.19 0.20 0.20 0.18 0.16 0.13 0.11 0.08 0.05
0.05 0.07 0.07 0.07 0.05 0.06 0.09 0.10 0.10 0.10 0.12 0.15 0.16 0.16 0.16 0.16 0.14 0.14 0.13 0.12 0.11 0.12
0.04 0.06 0.07 0.07 0.05 0.05 0.07 0.07 0.07 0.08 0.09 0.09 0.09 0.09 0.11 0.14 0.22 0.30 0.35 0.37 0.35 0.34
0.03 0.04 0.05 0.05 0.07 0.07 0.07 0.05 0.05 0.05 0.04 0.04 0.06 0.09 0.10 0.10 0.12 0.15 0.19 0.24 0.29 0.32
0.04 0.05 0.06 0.06 0.06 0.06 0.06 0.06 0.05 0.04 0.03 0.02 0.02 0.03 0.05 0.08 0.12 0.16 0.24 0.28 0.29 0.30
0.07 0.08 0.07 0.07 0.06 0.05 0.05 0.05 0.04 0.05 0.05 0.06 0.06 0.07 0.09 0.08 0.08 0.07 0.06 0.07 0.09 0.14
0.06 0.08 0.07 0.06 0.07 0.05 0.04 0.04 0.04 0.08 0.14 0.16 0.16 0.19 0.18 0.17 0.17 0.18 0.21 0.23 0.26 0.30
0.05 0.06 0.08 0.09 0.09 0.09 0.09 0.10 0.10 0.13 0.14 0.17 0.21 0.33 0.29 0.24 0.26 0.27 0.28 0.30 0.33 0.34
0.08 0.09 0.12 0.13 0.16 0.14 0.12 0.15 0.24 0.24 0.19 0.16 0.15 0.25 0.21 0.21 0.20 0.22 0.25 0.24 0.20 0.15
0.47 0.39 0.39 0.41 0.40 0.32 0.30 0.29 0.25 0.27 0.37 0.45 0.51 0.48 0.35 0.27 0.20 0.18 0.15 0.13 0.11 0.07
0.66 0.62 0.87 1.01 0.86 0.75 0.73 0.68 0.77 0.64 0.55 0.66 0.73 0.59 0.47 0.30 0.20 0.15 0.11 0.06 0.02 0.00
0.77 0.64 0.75 0.70 0.76 0.71 0.63 0.68 0.66 0.70 0.57 0.52 0.48 0.34 0.27 0.19 0.12 0.05 0.01 0.00 0.00 0.00
0.55 0.71 0.67 0.69 0.53 0.61 0.53 0.41 0.37 0.33 0.30 0.20 0.12 0.04 0.01 0.00 0.00 0.00 0.00 0.00 0.00 0.00

GFSNIL_prec_precacc_036.txt.gz
Total_Precipitation_Accumulation
0.05 0.08 0.11 0.14 0.11 0.10 0.10 0.11 0.15 0.15 0.17 0.19 0.20 0.21 0.21 0.22 0.20 0.18 0.17 0.16 0.14 0.11
0.05 0.08 0.08 0.10 0.10 0.11 0.10 0.12 0.15 0.15 0.15 0.18 0.20 0.21 0.22 0.22 0.20 0.19 0.18 0.16 0.15 0.10
0.05 0.07 0.07 0.07 0.05 0.06 0.09 0.10 0.10 0.10 0.12 0.15 0.18 0.19 0.20 0.20 0.18 0.20 0.20 0.18 0.18 0.19
0.04 0.06 0.07 0.07 0.05 0.05 0.07 0.07 0.07 0.08 0.09 0.09 0.09 0.10 0.13 0.17 0.27 0.36 0.41 0.44 0.43 0.42
0.03 0.04 0.05 0.05 0.07 0.07 0.07 0.05 0.05 0.05 0.04 0.04 0.06 0.09 0.10 0.11 0.13 0.17 0.23 0.29 0.35 0.38
0.04 0.05 0.06 0.06 0.06 0.06 0.06 0.06 0.05 0.04 0.03 0.02 0.02 0.03 0.05 0.08 0.12 0.17 0.25 0.29 0.31 0.34
0.07 0.08 0.07 0.07 0.06 0.05 0.05 0.05 0.04 0.05 0.05 0.06 0.06 0.07 0.09 0.08 0.08 0.07 0.07 0.08 0.10 0.16
0.06 0.08 0.07 0.06 0.07 0.05 0.04 0.04 0.04 0.08 0.14 0.16 0.16 0.19 0.18 0.17 0.17 0.18 0.21 0.23 0.27 0.31
0.05 0.06 0.08 0.09 0.09 0.09 0.09 0.10 0.10 0.13 0.14 0.17 0.21 0.34 0.29 0.25 0.26 0.28 0.28 0.30 0.33 0.36
0.08 0.09 0.12 0.14 0.16 0.14 0.12 0.15 0.24 0.25 0.20 0.16 0.15 0.27 0.22 0.21 0.20 0.23 0.25 0.25 0.21 0.16
0.47 0.39 0.39 0.41 0.40 0.32 0.30 0.29 0.25 0.27 0.37 0.45 0.53 0.50 0.35 0.28 0.20 0.19 0.16 0.15 0.12 0.07
0.66 0.62 0.87 1.01 0.86 0.75 0.73 0.68 0.77 0.64 0.55 0.66 0.74 0.60 0.47 0.30 0.22 0.18 0.13 0.07 0.02 0.00
0.78 0.64 0.75 0.70 0.76 0.71 0.63 0.68 0.66 0.70 0.57 0.52 0.48 0.34 0.27 0.19 0.12 0.06 0.01 0.00 0.00 0.00
0.55 0.71 0.67 0.69 0.53 0.61 0.53 0.41 0.37 0.33 0.30 0.20 0.12 0.04 0.01 0.00 0.00 0.00 0.00 0.00 0.00 0.00

GFSNIL_prec_precacc_039.txt.gz
Total_Precipitation_Accumulation
0.05 0.08 0.11 0.14 0.11 0.10 0.10 0.11 0.15 0.15 0.17 0.19 0.21 0.21 0.22 0.24 0.23 0.23 0.23 0.23 0.21 0.19
0.05 0.08 0.08 0.10 0.10 0.11 0.10 0.12 0.15 0.15 0.15 0.18 0.20 0.22 0.24 0.23 0.22 0.22 0.22 0.21 0.19 0.14
0.05 0.07 0.07 0.07 0.05 0.06 0.09 0.10 0.10 0.10 0.12 0.15 0.18 0.19 0.20 0.22 0.19 0.22 0.22 0.23 0.26 0.27
0.04 0.06 0.07 0.07 0.05 0.05 0.07 0.07 0.07 0.08 0.09 0.09 0.09 0.10 0.13 0.17 0.27 0.36 0.42 0.46 0.47 0.48
0.03 0.04 0.05 0.05 0.07 0.07 0.07 0.05 0.05 0.05 0.04 0.04 0.06 0.09 0.10 0.11 0.13 0.17 0.23 0.29 0.35 0.40
0.04 0.05 0.06 0.06 0.06 0.06 0.06 0.06 0.05 0.04 0.03 0.02 0.02 0.03 0.05 0.08 0.12 0.17 0.25 0.29 0.31 0.34
0.07 0.08 0.07 0.07 0.06 0.05 0.05 0.05 0.04 0.05 0.05 0.06 0.06 0.07 0.09 0.08 0.08 0.07 0.07 0.08 0.11 0.17
0.06 0.08 0.07 0.06 0.07 0.05 0.04 0.04 0.04 0.08 0.14 0.16 0.16 0.19 0.18 0.17 0.17 0.18 0.21 0.23 0.27 0.32
0.05 0.06 0.08 0.09 0.09 0.09 0.09 0.10 0.10 0.13 0.14 0.17 0.21 0.34 0.29 0.25 0.26 0.28 0.29 0.31 0.33 0.36
0.08 0.09 0.12 0.14 0.16 0.14 0.12 0.15 0.24 0.25 0.20 0.16 0.15 0.27 0.22 0.21 0.20 0.23 0.25 0.25 0.22 0.18
0.47 0.39 0.39 0.41 0.40 0.32 0.30 0.29 0.25 0.27 0.37 0.45 0.53 0.50 0.36 0.28 0.20 0.19 0.17 0.15 0.13 0.09
0.66 0.62 0.87 1.01 0.86 0.75 0.73 0.68 0.77 0.64 0.55 0.66 0.74 0.61 0.47 0.30 0.22 0.18 0.13 0.07 0.02 0.00
0.78 0.64 0.75 0.70 0.76 0.71 0.63 0.68 0.66 0.70 0.57 0.52 0.48 0.34 0.27 0.19 0.12 0.06 0.01 0.00 0.00 0.00
0.55 0.71 0.67 0.69 0.53 0.61 0.53 0.41 0.37 0.33 0.30 0.20 0.12 0.04 0.01 0.00 0.00 0.00 0.00 0.00 0.00 0.00

GFSNIL_prec_precacc_042.txt.gz
Total_Precipitation_Accumulation
0.05 0.08 0.11 0.14 0.11 0.10 0.10 0.11 0.15 0.15 0.17 0.19 0.21 0.21 0.23 0.24 0.24 0.24 0.24 0.25 0.22 0.21
0.05 0.08 0.08 0.10 0.10 0.11 0.10 0.12 0.15 0.15 0.15 0.18 0.20 0.22 0.24 0.24 0.22 0.22 0.23 0.21 0.19 0.14
0.05 0.07 0.07 0.07 0.05 0.06 0.09 0.10 0.10 0.10 0.12 0.15 0.18 0.19 0.20 0.22 0.19 0.22 0.22 0.23 0.26 0.27
0.04 0.06 0.07 0.07 0.05 0.05 0.07 0.07 0.07 0.08 0.09 0.09 0.09 0.10 0.13 0.17 0.27 0.36 0.42 0.46 0.47 0.48
0.03 0.04 0.05 0.05 0.07 0.07 0.07 0.05 0.05 0.05 0.04 0.04 0.06 0.09 0.10 0.11 0.13 0.17 0.23 0.29 0.35 0.40
0.04 0.05 0.06 0.06 0.06 0.06 0.06 0.06 0.05 0.04 0.03 0.02 0.02 0.03 0.05 0.08 0.12 0.17 0.25 0.29 0.31 0.34
0.07 0.08 0.07 0.07 0.06 0.05 0.05 0.05 0.04 0.05 0.05 0.06 0.06 0.07 0.09 0.08 0.08 0.07 0.07 0.08 0.11 0.17
0.06 0.08 0.07 0.06 0.07 0.05 0.04 0.04 0.04 0.08 0.14 0.16 0.16 0.19 0.18 0.17 0.17 0.18 0.21 0.23 0.27 0.32
0.05 0.06 0.08 0.09 0.09 0.09 0.09 0.10 0.10 0.13 0.14 0.17 0.21 0.34 0.29 0.25 0.26 0.28 0.29 0.31 0.33 0.36
0.08 0.09 0.12 0.14 0.16 0.14 0.12 0.15 0.24 0.25 0.20 0.16 0.15 0.27 0.22 0.21 0.20 0.23 0.25 0.25 0.22 0.19
0.47 0.39 0.39 0.41 0.40 0.32 0.30 0.29 0.25 0.27 0.37 0.45 0.53 0.50 0.36 0.28 0.20 0.19 0.17 0.15 0.13 0.09
0.66 0.62 0.87 1.01 0.86 0.75 0.73 0.68 0.77 0.64 0.55 0.66 0.74 0.61 0.47 0.30 0.22 0.18 0.13 0.07 0.02 0.00
0.78 0.64 0.75 0.70 0.76 0.71 0.63 0.68 0.66 0.70 0.57 0.52 0.48 0.34 0.27 0.19 0.12 0.06 0.01 0.00 0.00 0.00
0.55 0.71 0.67 0.69 0.53 0.61 0.53 0.41 0.37 0.33 0.30 0.20 0.12 0.04 0.01 0.00 0.00 0.00 0.00 0.00 0.00 0.00

GFSNIL_prec_precacc_045.txt.gz
Total_Precipitation_Accumulation
0.05 0.08 0.11 0.14 0.11 0.10 0.10 0.11 0.15 0.15 0.17 0.19 0.21 0.21 0.23 0.24 0.24 0.24 0.24 0.25 0.22 0.21
0.05 0.08 0.08 0.10 0.10 0.11 0.10 0.12 0.15 0.15 0.15 0.18 0.20 0.22 0.24 0.24 0.22 0.22 0.23 0.22 0.20 0.14
0.05 0.07 0.07 0.07 0.05 0.06 0.09 0.10 0.10 0.10 0.12 0.15 0.18 0.19 0.20 0.22 0.19 0.22 0.22 0.23 0.27 0.28
0.04 0.06 0.07 0.07 0.05 0.05 0.07 0.07 0.07 0.08 0.09 0.09 0.09 0.10 0.13 0.17 0.27 0.36 0.42 0.46 0.47 0.48
0.03 0.04 0.05 0.05 0.07 0.07 0.07 0.05 0.05 0.05 0.04 0.04 0.06 0.09 0.10 0.11 0.13 0.17 0.23 0.29 0.35 0.40
0.04 0.05 0.06 0.06 0.06 0.06 0.06 0.06 0.05 0.04 0.03 0.02 0.02 0.03 0.05 0.08 0.12 0.17 0.25 0.29 0.31 0.34
0.07 0.08 0.07 0.07 0.06 0.05 0.05 0.05 0.04 0.05 0.05 0.06 0.06 0.07 0.09 0.08 0.08 0.07 0.07 0.08 0.11 0.17
0.06 0.08 0.07 0.06 0.07 0.05 0.04 0.04 0.04 0.08 0.14 0.16 0.16 0.19 0.18 0.17 0.17 0.18 0.21 0.23 0.27 0.32
0.05 0.06 0.08 0.09 0.09 0.09 0.09 0.10 0.10 0.13 0.14 0.17 0.21 0.35 0.29 0.25 0.26 0.28 0.29 0.31 0.33 0.36
0.08 0.09 0.12 0.14 0.16 0.14 0.12 0.15 0.24 0.25 0.20 0.16 0.15 0.27 0.22 0.21 0.20 0.23 0.25 0.25 0.22 0.19
0.47 0.39 0.39 0.41 0.40 0.32 0.30 0.29 0.25 0.27 0.37 0.45 0.53 0.50 0.36 0.28 0.20 0.19 0.17 0.15 0.13 0.09
0.66 0.62 0.87 1.01 0.86 0.75 0.73 0.68 0.77 0.64 0.55 0.66 0.74 0.61 0.47 0.30 0.22 0.18 0.13 0.07 0.02 0.00
0.78 0.64 0.75 0.70 0.76 0.71 0.63 0.68 0.66 0.70 0.57 0.52 0.48 0.34 0.27 0.19 0.12 0.06 0.01 0.00 0.00 0.00
0.55 0.71 0.67 0.69 0.53 0.61 0.53 0.41 0.37 0.33 0.30 0.20 0.12 0.04 0.01 0.00 0.00 0.00 0.00 0.00 0.00 0.00

GFSNIL_prec_precacc_048.txt.gz
Total_Precipitation_Accumulation
0.05 0.08 0.11 0.14 0.11 0.10 0.10 0.11 0.15 0.15 0.17 0.19 0.21 0.21 0.23 0.24 0.24 0.24 0.24 0.25 0.23 0.21
0.05 0.08 0.08 0.10 0.10 0.11 0.10 0.12 0.15 0.15 0.15 0.18 0.20 0.22 0.24 0.24 0.22 0.22 0.23 0.22 0.20 0.15
0.05 0.07 0.07 0.07 0.05 0.06 0.09 0.10 0.10 0.10 0.12 0.15 0.18 0.19 0.20 0.22 0.19 0.22 0.22 0.23 0.27 0.28
0.04 0.06 0.07 0.07 0.05 0.05 0.07 0.07 0.07 0.08 0.09 0.09 0.09 0.10 0.13 0.17 0.27 0.36 0.42 0.46 0.47 0.48
0.03 0.04 0.05 0.05 0.07 0.07 0.07 0.05 0.05 0.05 0.04 0.04 0.06 0.09 0.10 0.11 0.13 0.17 0.23 0.29 0.35 0.40
0.04 0.05 0.06 0.06 0.06 0.06 0.06 0.06 0.05 0.04 0.03 0.02 0.02 0.03 0.05 0.08 0.12 0.17 0.25 0.29 0.31 0.34
0.07 0.08 0.07 0.07 0.06 0.05 0.05 0.05 0.04 0.05 0.05 0.06 0.06 0.07 0.09 0.08 0.08 0.07 0.07 0.08 0.11 0.17
0.06 0.08 0.07 0.06 0.07 0.05 0.05 0.04 0.04 0.08 0.14 0.16 0.16 0.19 0.18 0.17 0.17 0.18 0.21 0.23 0.27 0.32
0.05 0.06 0.08 0.09 0.09 0.09 0.09 0.10 0.10 0.13 0.14 0.17 0.21 0.35 0.30 0.25 0.26 0.28 0.29 0.31 0.33 0.36
0.08 0.09 0.12 0.14 0.16 0.14 0.12 0.15 0.24 0.25 0.20 0.16 0.15 0.27 0.22 0.21 0.20 0.23 0.25 0.25 0.22 0.19
0.47 0.39 0.39 0.41 0.40 0.32 0.30 0.29 0.25 0.27 0.37 0.45 0.53 0.50 0.36 0.28 0.20 0.19 0.17 0.15 0.13 0.09
0.66 0.62 0.87 1.01 0.86 0.75 0.73 0.68 0.77 0.64 0.55 0.66 0.74 0.61 0.47 0.30 0.22 0.18 0.13 0.07 0.02 0.00
0.78 0.64 0.75 0.70 0.76 0.71 0.63 0.68 0.66 0.70 0.57 0.52 0.48 0.34 0.27 0.19 0.12 0.06 0.01 0.00 0.00 0.00
0.55 0.71 0.67 0.69 0.53 0.61 0.53 0.41 0.37 0.33 0.30 0.20 0.12 0.04 0.01 0.00 0.00 0.00 0.00 0.00 0.00 0.00

GFSNIL_prec_precacc_051.txt.gz
Total_Precipitation_Accumulation
0.05 0.08 0.11 0.14 0.11 0.10 0.10 0.11 0.15 0.15 0.17 0.19 0.21 0.21 0.23 0.24 0.24 0.24 0.24 0.26 0.23 0.21
0.05 0.08 0.08 0.10 0.10 0.11 0.10 0.12 0.15 0.15 0.15 0.18 0.20 0.22 0.24 0.24 0.22 0.22 0.23 0.22 0.20 0.15
0.05 0.07 0.07 0.07 0.05 0.06 0.09 0.10 0.10 0.10 0.12 0.15 0.18 0.19 0.20 0.22 0.19 0.22 0.22 0.23 0.27 0.28
0.04 0.06 0.07 0.07 0.05 0.05 0.07 0.07 0.07 0.08 0.09 0.09 0.09 0.10 0.13 0.17 0.27 0.36 0.42 0.46 0.47 0.48
0.03 0.04 0.05 0.05 0.07 0.07 0.07 0.05 0.05 0.05 0.04 0.04 0.06 0.09 0.10 0.11 0.13 0.17 0.23 0.29 0.35 0.40
0.04 0.05 0.06 0.06 0.06 0.06 0.06 0.06 0.05 0.04 0.03 0.02 0.02 0.03 0.05 0.08 0.12 0.17 0.25 0.29 0.31 0.34
0.07 0.08 0.07 0.07 0.06 0.05 0.05 0.05 0.04 0.05 0.05 0.06 0.06 0.07 0.09 0.08 0.08 0.07 0.07 0.08 0.11 0.17
0.06 0.08 0.07 0.06 0.07 0.05 0.05 0.04 0.04 0.08 0.14 0.16 0.16 0.19 0.18 0.17 0.17 0.18 0.21 0.23 0.27 0.32
0.05 0.06 0.08 0.09 0.09 0.09 0.09 0.10 0.10 0.13 0.14 0.17 0.21 0.35 0.30 0.25 0.26 0.28 0.29 0.31 0.33 0.36
0.08 0.09 0.12 0.14 0.16 0.14 0.12 0.15 0.24 0.25 0.20 0.16 0.15 0.27 0.22 0.21 0.20 0.23 0.25 0.25 0.22 0.19
0.47 0.39 0.39 0.41 0.40 0.32 0.30 0.29 0.25 0.27 0.37 0.45 0.53 0.50 0.36 0.28 0.20 0.19 0.17 0.15 0.13 0.09
0.66 0.62 0.87 1.01 0.86 0.75 0.73 0.68 0.77 0.64 0.55 0.66 0.74 0.61 0.47 0.30 0.22 0.18 0.13 0.07 0.02 0.00
0.78 0.64 0.75 0.70 0.76 0.71 0.63 0.68 0.66 0.70 0.57 0.52 0.48 0.34 0.27 0.19 0.12 0.06 0.01 0.00 0.00 0.00
0.55 0.71 0.67 0.69 0.53 0.61 0.53 0.41 0.37 0.33 0.30 0.20 0.12 0.04 0.01 0.00 0.00 0.00 0.00 0.00 0.00 0.00

GFSNIL_prec_precacc_054.txt.gz
Total_Precipitation_Accumulation
0.05 0.08 0.11 0.14 0.11 0.10 0.10 0.11 0.15 0.15 0.17 0.19 0.21 0.21 0.23 0.24 0.24 0.24 0.25 0.26 0.24 0.22
0.05 0.08 0.08 0.10 0.10 0.11 0.10 0.12 0.15 0.15 0.15 0.18 0.20 0.22 0.24 0.24 0.22 0.22 0.23 0.22 0.20 0.15
0.05 0.07 0.07 0.07 0.05 0.06 0.09 0.10 0.10 0.10 0.12 0.15 0.18 0.19 0.20 0.22 0.19 0.22 0.22 0.23 0.27 0.28
0.04 0.06 0.07 0.07 0.05 0.05 0.07 0.07 0.07 0.08 0.09 0.09 0.09 0.10 0.13 0.17 0.27 0.36 0.42 0.46 0.47 0.48
0.03 0.04 0.05 0.05 0.07 0.07 0.07 0.05 0.05 0.05 0.04 0.04 0.06 0.09 0.10 0.11 0.13 0.17 0.23 0.29 0.35 0.40
0.04 0.05 0.06 0.06 0.06 0.06 0.06 0.06 0.05 0.04 0.03 0.02 0.02 0.03 0.05 0.08 0.12 0.17 0.25 0.29 0.31 0.34
0.07 0.08 0.07 0.07 0.06 0.05 0.05 0.05 0.04 0.05 0.05 0.06 0.06 0.07 0.09 0.08 0.08 0.07 0.07 0.08 0.11 0.17
0.06 0.08 0.07 0.06 0.07 0.05 0.05 0.04 0.04 0.08 0.14 0.16 0.16 0.19 0.18 0.17 0.17 0.18 0.21 0.23 0.27 0.32
0.05 0.06 0.08 0.09 0.09 0.09 0.09 0.10 0.10 0.13 0.14 0.17 0.21 0.36 0.30 0.25 0.26 0.28 0.29 0.31 0.33 0.36
0.08 0.09 0.12 0.14 0.16 0.14 0.12 0.15 0.24 0.25 0.20 0.16 0.15 0.28 0.22 0.21 0.20 0.23 0.25 0.25 0.22 0.19
0.47 0.39 0.39 0.41 0.40 0.32 0.30 0.29 0.25 0.27 0.37 0.45 0.53 0.50 0.36 0.28 0.20 0.19 0.17 0.15 0.13 0.09
0.66 0.62 0.87 1.01 0.86 0.75 0.73 0.68 0.77 0.64 0.55 0.66 0.74 0.61 0.47 0.30 0.22 0.18 0.13 0.07 0.02 0.00
0.78 0.64 0.75 0.70 0.76 0.71 0.63 0.68 0.66 0.70 0.57 0.52 0.48 0.34 0.27 0.19 0.12 0.06 0.01 0.00 0.00 0.00
0.55 0.71 0.67 0.69 0.53 0.61 0.53 0.41 0.37 0.33 0.30 0.20 0.12 0.04 0.01 0.00 0.00 0.00 0.00 0.00 0.00 0.00

GFSNIL_prec_precacc_057.txt.gz
Total_Precipitation_Accumulation
0.05 0.08 0.11 0.14 0.11 0.10 0.10 0.11 0.15 0.15 0.17 0.19 0.21 0.21 0.23 0.24 0.25 0.25 0.26 0.27 0.25 0.23
0.05 0.08 0.08 0.10 0.10 0.11 0.10 0.12 0.15 0.15 0.15 0.18 0.20 0.22 0.24 0.24 0.22 0.22 0.23 0.22 0.20 0.15
0.05 0.07 0.07 0.07 0.05 0.06 0.09 0.10 0.10 0.10 0.12 0.15 0.18 0.19 0.20 0.22 0.19 0.22 0.22 0.23 0.27 0.28
0.04 0.06 0.07 0.07 0.05 0.05 0.07 0.07 0.07 0.08 0.09 0.09 0.09 0.10 0.13 0.17 0.27 0.36 0.42 0.46 0.47 0.48
0.03 0.04 0.05 0.05 0.07 0.07 0.07 0.05 0.05 0.05 0.04 0.04 0.06 0.09 0.10 0.11 0.13 0.17 0.23 0.29 0.35 0.40
0.04 0.05 0.06 0.06 0.06 0.06 0.06 0.06 0.05 0.04 0.03 0.02 0.02 0.03 0.05 0.08 0.12 0.17 0.25 0.29 0.31 0.34
0.07 0.08 0.07 0.07 0.06 0.05 0.05 0.05 0.04 0.05 0.05 0.06 0.06 0.07 0.09 0.08 0.08 0.07 0.07 0.08 0.11 0.17
0.06 0.08 0.07 0.06 0.07 0.05 0.05 0.04 0.04 0.08 0.14 0.16 0.16 0.19 0.18 0.17 0.17 0.18 0.21 0.23 0.27 0.32
0.05 0.06 0.08 0.09 0.09 0.09 0.09 0.10 0.10 0.13 0.14 0.17 0.21 0.36 0.30 0.25 0.26 0.28 0.29 0.31 0.33 0.36
0.08 0.09 0.12 0.14 0.16 0.14 0.12 0.15 0.24 0.25 0.20 0.16 0.15 0.28 0.22 0.21 0.20 0.23 0.25 0.25 0.22 0.19
0.47 0.39 0.39 0.41 0.40 0.32 0.30 0.29 0.25 0.27 0.37 0.45 0.53 0.50 0.36 0.28 0.20 0.19 0.17 0.15 0.13 0.09
0.66 0.62 0.87 1.01 0.86 0.75 0.73 0.68 0.77 0.64 0.55 0.66 0.74 0.61 0.47 0.30 0.22 0.18 0.13 0.07 0.02 0.00
0.78 0.64 0.75 0.70 0.76 0.71 0.63 0.68 0.66 0.70 0.57 0.52 0.48 0.34 0.27 0.19 0.12 0.06 0.01 0.00 0.00 0.00
0.55 0.71 0.67 0.69 0.53 0.61 0.53 0.41 0.37 0.33 0.30 0.20 0.12 0.04 0.01 0.00 0.00 0.00 0.00 0.00 0.00 0.00

GFSNIL_prec_precacc_060.txt.gz
Total_Precipitation_Accumulation
0.05 0.08 0.11 0.14 0.11 0.10 0.10 0.11 0.15 0.15 0.17 0.19 0.21 0.21 0.23 0.25 0.25 0.25 0.26 0.28 0.25 0.24
0.05 0.08 0.08 0.10 0.10 0.11 0.10 0.12 0.15 0.15 0.15 0.18 0.20 0.22 0.24 0.24 0.22 0.22 0.24 0.23 0.21 0.15
0.05 0.07 0.07 0.07 0.05 0.06 0.09 0.10 0.10 0.10 0.12 0.15 0.18 0.19 0.20 0.22 0.19 0.22 0.22 0.24 0.27 0.28
0.04 0.06 0.07 0.07 0.05 0.05 0.07 0.07 0.07 0.08 0.09 0.09 0.09 0.10 0.13 0.17 0.27 0.36 0.42 0.46 0.47 0.48
0.03 0.04 0.05 0.05 0.07 0.07 0.07 0.05 0.05 0.05 0.04 0.04 0.06 0.09 0.10 0.11 0.13 0.17 0.23 0.29 0.35 0.40
0.04 0.05 0.06 0.06 0.06 0.06 0.06 0.06 0.05 0.04 0.03 0.02 0.02 0.03 0.05 0.08 0.12 0.17 0.25 0.29 0.31 0.34
0.07 0.08 0.07 0.07 0.06 0.05 0.05 0.05 0.04 0.05 0.05 0.06 0.06 0.07 0.09 0.08 0.08 0.07 0.07 0.08 0.11 0.17
0.06 0.08 0.07 0.06 0.07 0.05 0.05 0.04 0.04 0.08 0.14 0.16 0.16 0.19 0.18 0.17 0.17 0.18 0.21 0.23 0.27 0.32
0.05 0.06 0.08 0.09 0.09 0.09 0.09 0.10 0.10 0.13 0.14 0.17 0.21 0.36 0.30 0.25 0.26 0.28 0.29 0.31 0.33 0.36
0.08 0.09 0.12 0.14 0.16 0.14 0.12 0.15 0.24 0.25 0.20 0.16 0.15 0.28 0.23 0.22 0.20 0.23 0.25 0.25 0.22 0.19
0.47 0.39 0.39 0.41 0.40 0.32 0.30 0.29 0.25 0.27 0.37 0.45 0.53 0.50 0.36 0.28 0.20 0.19 0.17 0.15 0.13 0.09
0.66 0.62 0.87 1.01 0.86 0.75 0.73 0.68 0.77 0.64 0.55 0.66 0.74 0.61 0.47 0.30 0.22 0.18 0.13 0.07 0.02 0.00
0.78 0.64 0.75 0.70 0.76 0.71 0.63 0.68 0.66 0.70 0.57 0.52 0.48 0.34 0.27 0.19 0.12 0.06 0.01 0.00 0.00 0.00
0.55 0.71 0.67 0.69 0.53 0.61 0.53 0.41 0.37 0.33 0.30 0.20 0.12 0.04 0.01 0.00 0.00 0.00 0.00 0.00 0.00 0.00

GFSNIL_prec_precacc_063.txt.gz
Total_Precipitation_Accumulation
0.05 0.08 0.11 0.14 0.11 0.10 0.10 0.11 0.15 0.15 0.17 0.19 0.21 0.21 0.23 0.25 0.25 0.25 0.26 0.28 0.26 0.25
0.05 0.08 0.08 0.10 0.10 0.11 0.10 0.12 0.15 0.15 0.15 0.18 0.20 0.22 0.24 0.24 0.22 0.22 0.24 0.23 0.21 0.15
0.05 0.07 0.07 0.07 0.05 0.06 0.09 0.10 0.10 0.10 0.12 0.15 0.18 0.19 0.20 0.22 0.19 0.22 0.22 0.24 0.27 0.28
0.04 0.06 0.07 0.07 0.05 0.05 0.07 0.07 0.07 0.08 0.09 0.09 0.09 0.10 0.13 0.17 0.27 0.36 0.42 0.46 0.47 0.48
0.03 0.04 0.05 0.05 0.07 0.07 0.07 0.05 0.05 0.05 0.04 0.04 0.06 0.09 0.10 0.11 0.13 0.17 0.23 0.29 0.35 0.40
0.04 0.05 0.06 0.06 0.06 0.06 0.06 0.06 0.05 0.04 0.03 0.02 0.02 0.03 0.05 0.08 0.12 0.17 0.25 0.29 0.31 0.34
0.07 0.08 0.07 0.07 0.06 0.05 0.05 0.05 0.04 0.05 0.05 0.06 0.06 0.07 0.09 0.08 0.08 0.07 0.07 0.08 0.11 0.17
0.06 0.08 0.07 0.06 0.07 0.05 0.05 0.04 0.04 0.08 0.14 0.16 0.16 0.19 0.18 0.17 0.17 0.18 0.21 0.23 0.27 0.32
0.05 0.06 0.08 0.09 0.09 0.09 0.09 0.10 0.10 0.13 0.14 0.17 0.21 0.37 0.31 0.25 0.26 0.28 0.29 0.31 0.33 0.36
0.08 0.09 0.12 0.14 0.16 0.14 0.12 0.15 0.24 0.25 0.20 0.16 0.15 0.29 0.23 0.22 0.20 0.23 0.25 0.25 0.22 0.19
0.47 0.39 0.39 0.41 0.40 0.32 0.30 0.29 0.25 0.27 0.37 0.45 0.53 0.51 0.36 0.28 0.20 0.19 0.17 0.15 0.13 0.09
0.66 0.62 0.87 1.01 0.86 0.75 0.73 0.68 0.77 0.64 0.55 0.66 0.74 0.61 0.47 0.30 0.22 0.18 0.13 0.07 0.02 0.00
0.78 0.64 0.75 0.70 0.76 0.71 0.63 0.68 0.66 0.70 0.57 0.52 0.48 0.34 0.27 0.19 0.12 0.06 0.01 0.00 0.00 0.00
0.55 0.71 0.67 0.69 0.53 0.61 0.53 0.41 0.37 0.33 0.30 0.20 0.12 0.04 0.01 0.00 0.00 0.00 0.00 0.00 0.00 0.00

GFSNIL_prec_precacc_066.txt.gz
Total_Precipitation_Accumulation
0.15 0.12 0.14 0.16 0.13 0.11 0.10 0.11 0.15 0.15 0.17 0.19 0.21 0.21 0.23 0.25 0.25 0.25 0.26 0.28 0.26 0.25
0.07 0.11 0.10 0.10 0.10 0.11 0.10 0.12 0.15 0.15 0.15 0.18 0.20 0.22 0.24 0.24 0.22 0.22 0.24 0.23 0.21 0.15
0.05 0.07 0.07 0.07 0.05 0.06 0.09 0.10 0.10 0.10 0.12 0.15 0.18 0.19 0.20 0.22 0.19 0.22 0.22 0.24 0.27 0.28
0.04 0.06 0.07 0.07 0.05 0.05 0.07 0.07 0.07 0.08 0.09 0.09 0.09 0.10 0.13 0.17 0.27 0.36 0.42 0.46 0.47 0.48
0.03 0.04 0.05 0.05 0.07 0.07 0.07 0.05 0.05 0.05 0.04 0.04 0.06 0.09 0.10 0.11 0.13 0.17 0.23 0.29 0.36 0.40
0.04 0.05 0.06 0.06 0.06 0.06 0.06 0.06 0.05 0.04 0.03 0.02 0.02 0.03 0.05 0.08 0.12 0.17 0.25 0.29 0.31 0.34
0.07 0.08 0.07 0.07 0.06 0.05 0.05 0.05 0.04 0.05 0.05 0.06 0.06 0.07 0.09 0.08 0.08 0.07 0.07 0.08 0.11 0.17
0.06 0.08 0.07 0.06 0.07 0.05 0.05 0.04 0.04 0.08 0.14 0.16 0.16 0.19 0.18 0.17 0.17 0.18 0.21 0.23 0.27 0.32
0.05 0.06 0.08 0.09 0.09 0.09 0.09 0.10 0.10 0.13 0.14 0.17 0.21 0.37 0.31 0.25 0.26 0.28 0.29 0.31 0.33 0.36
0.08 0.09 0.12 0.14 0.16 0.14 0.12 0.15 0.24 0.25 0.20 0.16 0.15 0.29 0.24 0.22 0.20 0.23 0.25 0.25 0.22 0.19
0.47 0.39 0.39 0.41 0.40 0.32 0.30 0.29 0.25 0.27 0.37 0.45 0.54 0.51 0.36 0.28 0.20 0.19 0.17 0.15 0.13 0.09
0.66 0.62 0.87 1.01 0.86 0.75 0.73 0.68 0.77 0.64 0.55 0.66 0.74 0.61 0.47 0.30 0.22 0.18 0.13 0.07 0.02 0.00
0.78 0.64 0.75 0.70 0.76 0.71 0.63 0.68 0.66 0.70 0.57 0.52 0.48 0.35 0.27 0.19 0.12 0.06 0.01 0.00 0.00 0.00
0.55 0.71 0.67 0.69 0.53 0.61 0.53 0.41 0.37 0.33 0.30 0.21 0.12 0.04 0.01 0.00 0.00 0.00 0.00 0.00 0.00 0.00

GFSNIL_prec_precacc_069.txt.gz
Total_Precipitation_Accumulation
0.26 0.24 0.24 0.27 0.21 0.17 0.14 0.13 0.17 0.16 0.17 0.19 0.21 0.21 0.23 0.25 0.25 0.25 0.26 0.28 0.26 0.25
0.09 0.17 0.17 0.17 0.14 0.14 0.13 0.13 0.15 0.15 0.15 0.18 0.20 0.22 0.24 0.24 0.22 0.22 0.24 0.23 0.21 0.15
0.05 0.07 0.08 0.08 0.06 0.06 0.09 0.10 0.10 0.10 0.12 0.15 0.18 0.19 0.20 0.22 0.19 0.22 0.22 0.24 0.27 0.28
0.04 0.06 0.07 0.07 0.05 0.05 0.07 0.07 0.07 0.08 0.09 0.09 0.09 0.10 0.13 0.17 0.27 0.36 0.42 0.46 0.47 0.48
0.03 0.04 0.05 0.05 0.07 0.07 0.07 0.05 0.05 0.05 0.04 0.04 0.06 0.09 0.10 0.11 0.13 0.17 0.23 0.29 0.36 0.40
0.04 0.05 0.06 0.06 0.06 0.06 0.06 0.06 0.05 0.04 0.03 0.02 0.02 0.03 0.05 0.08 0.12 0.17 0.25 0.29 0.31 0.34
0.07 0.08 0.07 0.07 0.06 0.05 0.05 0.05 0.04 0.05 0.05 0.06 0.06 0.07 0.09 0.08 0.08 0.07 0.07 0.08 0.11 0.17
0.06 0.08 0.07 0.06 0.07 0.05 0.05 0.04 0.04 0.08 0.14 0.16 0.16 0.19 0.18 0.17 0.17 0.18 0.21 0.23 0.27 0.32
0.05 0.06 0.08 0.09 0.09 0.09 0.09 0.10 0.10 0.13 0.14 0.17 0.21 0.37 0.31 0.25 0.26 0.28 0.29 0.31 0.34 0.37
0.08 0.09 0.12 0.14 0.16 0.14 0.12 0.15 0.24 0.25 0.20 0.16 0.15 0.29 0.24 0.22 0.20 0.23 0.25 0.25 0.22 0.19
0.47 0.39 0.39 0.41 0.40 0.32 0.30 0.29 0.25 0.27 0.37 0.45 0.54 0.51 0.36 0.28 0.20 0.19 0.17 0.15 0.13 0.09
0.66 0.62 0.87 1.01 0.86 0.75 0.73 0.68 0.77 0.64 0.55 0.66 0.74 0.61 0.47 0.30 0.22 0.18 0.13 0.07 0.02 0.00
0.78 0.64 0.75 0.70 0.76 0.71 0.63 0.68 0.66 0.70 0.57 0.52 0.48 0.35 0.27 0.19 0.12 0.06 0.01 0.00 0.00 0.00
0.55 0.71 0.67 0.69 0.53 0.61 0.53 0.41 0.37 0.33 0.30 0.21 0.12 0.04 0.01 0.00 0.00 0.00 0.00 0.00 0.00 0.00

GFSNIL_prec_precacc_075.txt.gz
Total_Precipitation_Accumulation
0.26 0.25 0.29 0.37 0.33 0.30 0.32 0.37 0.51 0.62 0.60 0.50 0.47 0.42 0.29 0.26 0.25 0.25 0.26 0.28 0.26 0.25
0.09 0.17 0.18 0.19 0.19 0.21 0.23 0.27 0.30 0.27 0.25 0.26 0.26 0.27 0.26 0.24 0.22 0.22 0.24 0.23 0.21 0.15
0.05 0.07 0.08 0.08 0.08 0.09 0.13 0.12 0.12 0.11 0.13 0.16 0.18 0.19 0.20 0.22 0.19 0.22 0.22 0.24 0.27 0.28
0.04 0.06 0.07 0.07 0.05 0.05 0.07 0.07 0.07 0.08 0.09 0.09 0.09 0.10 0.13 0.17 0.27 0.36 0.42 0.46 0.47 0.48
0.03 0.04 0.05 0.05 0.07 0.07 0.07 0.05 0.05 0.05 0.04 0.04 0.06 0.09 0.10 0.11 0.13 0.17 0.23 0.29 0.36 0.40
0.04 0.05 0.06 0.06 0.06 0.06 0.06 0.06 0.05 0.04 0.03 0.02 0.02 0.03 0.05 0.08 0.12 0.17 0.25 0.29 0.31 0.34
0.07 0.08 0.07 0.07 0.06 0.05 0.05 0.05 0.04 0.05 0.05 0.06 0.06 0.07 0.09 0.08 0.08 0.07 0.07 0.08 0.11 0.17
0.06 0.08 0.07 0.06 0.07 0.05 0.05 0.04 0.04 0.08 0.14 0.16 0.16 0.19 0.18 0.17 0.17 0.18 0.21 0.23 0.27 0.32
0.05 0.06 0.08 0.09 0.09 0.09 0.09 0.10 0.10 0.13 0.14 0.17 0.21 0.37 0.31 0.25 0.26 0.28 0.29 0.31 0.34 0.37
0.08 0.09 0.12 0.14 0.16 0.14 0.12 0.15 0.24 0.25 0.20 0.16 0.15 0.29 0.24 0.22 0.20 0.23 0.25 0.25 0.22 0.19
0.47 0.39 0.39 0.41 0.40 0.32 0.30 0.29 0.25 0.27 0.37 0.45 0.54 0.51 0.36 0.28 0.20 0.19 0.17 0.15 0.13 0.09
0.66 0.62 0.87 1.01 0.86 0.75 0.73 0.68 0.77 0.64 0.55 0.66 0.74 0.61 0.47 0.30 0.22 0.18 0.13 0.07 0.02 0.01
0.78 0.64 0.75 0.70 0.76 0.71 0.63 0.68 0.66 0.70 0.57 0.52 0.48 0.35 0.27 0.20 0.12 0.06 0.01 0.00 0.00 0.01
0.55 0.71 0.67 0.69 0.53 0.61 0.53 0.41 0.37 0.33 0.30 0.21 0.12 0.04 0.01 0.01 0.00 0.00 0.00 0.00 0.00 0.00

GFSNIL_prec_precacc_078.txt.gz
Total_Precipitation_Accumulation
0.27 0.27 0.31 0.40 0.37 0.33 0.35 0.40 0.54 0.65 0.63 0.56 0.54 0.56 0.53 0.42 0.34 0.32 0.32 0.30 0.26 0.25
0.09 0.17 0.18 0.19 0.19 0.21 0.24 0.29 0.33 0.29 0.27 0.28 0.28 0.29 0.32 0.31 0.28 0.26 0.26 0.23 0.21 0.15
0.05 0.07 0.08 0.08 0.08 0.09 0.13 0.12 0.12 0.11 0.13 0.16 0.18 0.19 0.20 0.22 0.19 0.22 0.22 0.24 0.27 0.28
0.04 0.06 0.07 0.07 0.05 0.05 0.07 0.07 0.08 0.08 0.09 0.09 0.09 0.10 0.13 0.17 0.27 0.36 0.42 0.46 0.47 0.48
0.03 0.04 0.05 0.05 0.07 0.07 0.07 0.05 0.05 0.06 0.05 0.04 0.06 0.09 0.10 0.11 0.13 0.17 0.23 0.29 0.36 0.40
0.04 0.05 0.06 0.06 0.06 0.06 0.06 0.06 0.05 0.04 0.03 0.02 0.02 0.03 0.05 0.08 0.12 0.17 0.25 0.29 0.31 0.34
0.07 0.08 0.07 0.07 0.06 0.05 0.05 0.05 0.04 0.05 0.05 0.06 0.06 0.07 0.09 0.08 0.08 0.07 0.07 0.08 0.11 0.17
0.06 0.08 0.07 0.06 0.07 0.05 0.05 0.04 0.04 0.08 0.14 0.16 0.16 0.19 0.18 0.17 0.17 0.18 0.21 0.23 0.27 0.32
0.05 0.06 0.08 0.09 0.09 0.09 0.09 0.10 0.10 0.13 0.14 0.17 0.21 0.37 0.31 0.25 0.26 0.28 0.29 0.31 0.34 0.37
0.08 0.09 0.12 0.14 0.16 0.14 0.12 0.15 0.24 0.25 0.20 0.16 0.15 0.29 0.24 0.22 0.20 0.23 0.25 0.25 0.22 0.19
0.47 0.39 0.39 0.41 0.40 0.32 0.30 0.29 0.25 0.27 0.37 0.45 0.54 0.51 0.36 0.28 0.20 0.19 0.17 0.15 0.13 0.09
0.66 0.62 0.87 1.01 0.86 0.75 0.73 0.68 0.77 0.64 0.55 0.66 0.74 0.61 0.47 0.30 0.22 0.18 0.13 0.07 0.02 0.01
0.78 0.64 0.75 0.70 0.76 0.71 0.63 0.68 0.66 0.70 0.57 0.52 0.48 0.35 0.27 0.20 0.12 0.06 0.01 0.00 0.00 0.01
0.55 0.71 0.67 0.69 0.53 0.61 0.53 0.41 0.37 0.33 0.30 0.21 0.12 0.04 0.01 0.01 0.00 0.00 0.00 0.00 0.00 0.00

GFSNIL_prec_precacc_081.txt.gz
Total_Precipitation_Accumulation
0.33 0.35 0.38 0.44 0.37 0.34 0.35 0.40 0.55 0.66 0.66 0.59 0.59 0.60 0.58 0.55 0.51 0.47 0.45 0.46 0.39 0.36
0.09 0.17 0.21 0.22 0.20 0.21 0.24 0.31 0.38 0.34 0.32 0.32 0.30 0.32 0.35 0.35 0.31 0.29 0.28 0.25 0.22 0.16
0.05 0.07 0.08 0.08 0.08 0.09 0.13 0.12 0.13 0.12 0.14 0.16 0.18 0.20 0.22 0.23 0.20 0.22 0.22 0.24 0.27 0.28
0.04 0.06 0.07 0.07 0.05 0.05 0.07 0.07 0.08 0.08 0.09 0.10 0.10 0.11 0.13 0.17 0.27 0.36 0.42 0.46 0.47 0.48
0.03 0.04 0.05 0.05 0.07 0.07 0.07 0.05 0.05 0.06 0.06 0.06 0.08 0.10 0.10 0.11 0.13 0.17 0.23 0.29 0.36 0.40
0.04 0.05 0.06 0.06 0.06 0.06 0.06 0.06 0.05 0.04 0.05 0.06 0.04 0.04 0.05 0.08 0.12 0.17 0.25 0.29 0.31 0.34
0.07 0.08 0.07 0.07 0.06 0.05 0.05 0.05 0.04 0.05 0.05 0.07 0.08 0.08 0.09 0.09 0.08 0.07 0.07 0.08 0.11 0.17
0.06 0.08 0.07 0.06 0.07 0.05 0.05 0.04 0.04 0.08 0.14 0.16 0.16 0.19 0.18 0.17 0.17 0.18 0.21 0.23 0.27 0.32
0.05 0.06 0.08 0.09 0.09 0.09 0.09 0.10 0.10 0.13 0.14 0.17 0.21 0.37 0.31 0.25 0.26 0.28 0.29 0.31 0.34 0.37
0.08 0.09 0.12 0.14 0.16 0.14 0.12 0.15 0.24 0.25 0.20 0.16 0.15 0.29 0.24 0.22 0.20 0.23 0.25 0.25 0.22 0.19
0.47 0.39 0.39 0.41 0.40 0.32 0.30 0.29 0.25 0.27 0.37 0.45 0.54 0.51 0.36 0.28 0.20 0.19 0.17 0.15 0.13 0.09
0.66 0.62 0.87 1.01 0.86 0.75 0.73 0.68 0.77 0.64 0.55 0.66 0.74 0.61 0.47 0.30 0.22 0.18 0.13 0.07 0.02 0.01
0.78 0.64 0.75 0.70 0.76 0.71 0.63 0.68 0.66 0.70 0.57 0.52 0.48 0.35 0.27 0.20 0.12 0.06 0.01 0.00 0.00 0.01
0.55 0.71 0.67 0.69 0.53 0.61 0.53 0.41 0.37 0.33 0.30 0.21 0.12 0.04 0.01 0.01 0.00 0.00 0.00 0.00 0.00 0.00

GFSNIL_prec_precacc_084.txt.gz
Total_Precipitation_Accumulation
0.48 0.57 0.48 0.52 0.45 0.41 0.36 0.40 0.56 0.67 0.66 0.60 0.59 0.62 0.61 0.64 0.60 0.56 0.54 0.55 0.49 0.47
0.10 0.18 0.29 0.34 0.29 0.33 0.32 0.33 0.41 0.47 0.39 0.35 0.33 0.35 0.39 0.38 0.34 0.30 0.29 0.27 0.25 0.18
0.05 0.07 0.08 0.08 0.08 0.10 0.15 0.14 0.15 0.15 0.14 0.16 0.19 0.21 0.23 0.25 0.23 0.24 0.27 0.27 0.27 0.28
0.04 0.06 0.07 0.07 0.05 0.05 0.07 0.07 0.08 0.08 0.09 0.10 0.10 0.11 0.14 0.19 0.29 0.38 0.44 0.46 0.47 0.48
0.03 0.04 0.05 0.05 0.07 0.07 0.07 0.05 0.05 0.06 0.06 0.06 0.10 0.13 0.13 0.13 0.15 0.19 0.23 0.29 0.36 0.40
0.04 0.05 0.06 0.06 0.06 0.06 0.06 0.06 0.05 0.04 0.05 0.06 0.05 0.06 0.08 0.10 0.13 0.17 0.25 0.29 0.31 0.34
0.07 0.08 0.07 0.07 0.06 0.05 0.05 0.05 0.04 0.05 0.05 0.07 0.08 0.10 0.11 0.10 0.09 0.07 0.07 0.08 0.11 0.17
0.06 0.08 0.07 0.06 0.07 0.05 0.05 0.04 0.04 0.08 0.14 0.16 0.17 0.20 0.19 0.19 0.19 0.19 0.22 0.24 0.27 0.32
0.05 0.06 0.08 0.09 0.09 0.09 0.09 0.10 0.10 0.13 0.14 0.17 0.21 0.37 0.31 0.25 0.26 0.28 0.29 0.31 0.34 0.37
0.08 0.09 0.12 0.14 0.16 0.14 0.12 0.15 0.24 0.25 0.20 0.16 0.15 0.29 0.24 0.22 0.20 0.23 0.25 0.25 0.22 0.19
0.47 0.39 0.39 0.41 0.40 0.32 0.30 0.29 0.25 0.27 0.37 0.45 0.54 0.51 0.36 0.28 0.20 0.19 0.17 0.15 0.13 0.09
0.66 0.62 0.87 1.01 0.86 0.75 0.73 0.68 0.77 0.64 0.55 0.66 0.74 0.61 0.47 0.30 0.22 0.18 0.13 0.07 0.02 0.01
0.78 0.64 0.75 0.70 0.76 0.71 0.63 0.68 0.66 0.70 0.57 0.52 0.48 0.35 0.27 0.20 0.12 0.06 0.01 0.00 0.00 0.01
0.55 0.71 0.67 0.69 0.53 0.61 0.53 0.41 0.37 0.33 0.30 0.21 0.12 0.04 0.01 0.01 0.00 0.00 0.00 0.00 0.00 0.00

GFSNIL_prec_precacc_087.txt.gz
Total_Precipitation_Accumulation
0.63 0.82 0.75 0.70 0.55 0.47 0.39 0.43 0.56 0.67 0.67 0.60 0.60 0.62 0.62 0.66 0.65 0.65 0.69 0.70 0.59 0.53
0.13 0.22 0.34 0.43 0.45 0.55 0.55 0.39 0.43 0.56 0.55 0.42 0.37 0.37 0.40 0.40 0.36 0.34 0.33 0.31 0.28 0.21
0.05 0.08 0.09 0.10 0.10 0.14 0.23 0.23 0.21 0.24 0.27 0.25 0.22 0.23 0.25 0.26 0.26 0.27 0.29 0.32 0.39 0.36
0.04 0.06 0.07 0.07 0.05 0.05 0.07 0.07 0.08 0.08 0.09 0.10 0.11 0.12 0.15 0.19 0.30 0.40 0.45 0.51 0.58 0.62
0.03 0.04 0.05 0.05 0.07 0.07 0.07 0.05 0.05 0.06 0.06 0.06 0.10 0.13 0.14 0.14 0.16 0.21 0.26 0.32 0.41 0.43
0.04 0.05 0.06 0.06 0.06 0.06 0.06 0.06 0.05 0.04 0.05 0.06 0.05 0.06 0.08 0.10 0.14 0.19 0.28 0.33 0.35 0.35
0.07 0.08 0.07 0.07 0.06 0.05 0.05 0.05 0.04 0.05 0.05 0.07 0.08 0.10 0.11 0.11 0.10 0.09 0.09 0.10 0.11 0.17
0.06 0.08 0.07 0.06 0.07 0.05 0.05 0.04 0.04 0.08 0.14 0.16 0.17 0.20 0.19 0.19 0.19 0.20 0.24 0.25 0.28 0.33
0.05 0.06 0.08 0.09 0.09 0.09 0.09 0.10 0.10 0.13 0.14 0.17 0.21 0.37 0.31 0.25 0.26 0.29 0.31 0.33 0.35 0.38
0.08 0.09 0.12 0.14 0.16 0.14 0.12 0.15 0.24 0.25 0.20 0.16 0.15 0.29 0.24 0.22 0.20 0.23 0.25 0.25 0.23 0.20
0.47 0.39 0.39 0.41 0.40 0.32 0.30 0.29 0.25 0.27 0.37 0.45 0.54 0.51 0.36 0.28 0.20 0.19 0.17 0.15 0.13 0.09
0.66 0.62 0.87 1.01 0.86 0.75 0.73 0.68 0.77 0.64 0.55 0.66 0.74 0.61 0.47 0.30 0.22 0.18 0.13 0.07 0.02 0.01
0.78 0.64 0.75 0.70 0.76 0.71 0.63 0.68 0.66 0.70 0.57 0.52 0.48 0.35 0.27 0.20 0.12 0.06 0.01 0.00 0.00 0.01
0.55 0.71 0.67 0.69 0.53 0.61 0.53 0.41 0.37 0.33 0.30 0.21 0.12 0.04 0.01 0.01 0.01 0.00 0.00 0.00 0.00 0.00

GFSNIL_prec_precacc_090.txt.gz
Total_Precipitation_Accumulation
0.78 1.00 0.94 0.85 0.67 0.56 0.45 0.47 0.60 0.69 0.68 0.62 0.62 0.64 0.64 0.67 0.67 0.67 0.69 0.73 0.64 0.60
0.15 0.27 0.39 0.49 0.51 0.62 0.65 0.50 0.55 0.63 0.61 0.51 0.44 0.40 0.42 0.41 0.39 0.36 0.34 0.33 0.31 0.27
0.05 0.08 0.11 0.14 0.13 0.16 0.28 0.31 0.27 0.32 0.38 0.38 0.35 0.31 0.31 0.31 0.32 0.31 0.31 0.35 0.42 0.42
0.04 0.06 0.07 0.07 0.05 0.05 0.07 0.07 0.08 0.09 0.09 0.11 0.11 0.12 0.15 0.20 0.31 0.41 0.47 0.53 0.60 0.67
0.03 0.04 0.05 0.05 0.07 0.07 0.07 0.05 0.05 0.06 0.06 0.06 0.10 0.13 0.14 0.15 0.17 0.22 0.28 0.36 0.44 0.45
0.04 0.05 0.06 0.06 0.06 0.06 0.06 0.06 0.05 0.04 0.05 0.06 0.05 0.06 0.08 0.11 0.14 0.19 0.29 0.35 0.39 0.41
0.07 0.08 0.07 0.07 0.06 0.05 0.05 0.05 0.04 0.05 0.05 0.07 0.08 0.10 0.11 0.11 0.11 0.09 0.10 0.13 0.15 0.22
0.06 0.08 0.07 0.06 0.07 0.05 0.05 0.04 0.04 0.08 0.14 0.16 0.17 0.20 0.19 0.19 0.20 0.21 0.24 0.26 0.30 0.36
0.05 0.06 0.08 0.09 0.09 0.09 0.09 0.10 0.10 0.13 0.14 0.17 0.21 0.37 0.31 0.25 0.26 0.29 0.31 0.34 0.37 0.41
0.08 0.09 0.12 0.14 0.16 0.14 0.12 0.15 0.24 0.25 0.20 0.16 0.15 0.29 0.24 0.22 0.20 0.23 0.25 0.25 0.23 0.20
0.47 0.39 0.39 0.41 0.40 0.32 0.30 0.29 0.25 0.27 0.37 0.45 0.54 0.51 0.36 0.28 0.20 0.19 0.17 0.15 0.13 0.09
0.66 0.62 0.87 1.01 0.86 0.75 0.73 0.68 0.77 0.64 0.55 0.66 0.74 0.61 0.47 0.30 0.22 0.18 0.13 0.07 0.02 0.01
0.78 0.64 0.75 0.70 0.76 0.71 0.63 0.68 0.66 0.70 0.57 0.52 0.48 0.35 0.27 0.20 0.12 0.06 0.01 0.00 0.00 0.01
0.55 0.71 0.67 0.69 0.53 0.61 0.53 0.41 0.37 0.33 0.30 0.21 0.12 0.04 0.02 0.01 0.01 0.00 0.00 0.00 0.00 0.00

GFSNIL_prec_precacc_093.txt.gz
Total_Precipitation_Accumulation
0.93 1.21 1.18 1.10 1.00 0.88 0.77 0.75 0.86 0.92 0.86 0.78 0.78 0.80 0.79 0.80 0.78 0.76 0.78 0.81 0.74 0.68
0.22 0.34 0.50 0.63 0.64 0.77 0.91 0.82 0.82 0.86 0.79 0.67 0.56 0.49 0.51 0.50 0.46 0.43 0.41 0.39 0.35 0.31
0.05 0.09 0.14 0.16 0.16 0.20 0.33 0.42 0.44 0.51 0.51 0.50 0.55 0.52 0.50 0.45 0.45 0.40 0.38 0.41 0.48 0.47
0.04 0.06 0.07 0.07 0.05 0.05 0.07 0.07 0.08 0.10 0.13 0.13 0.15 0.23 0.31 0.31 0.39 0.48 0.53 0.59 0.66 0.71
0.03 0.04 0.05 0.05 0.07 0.07 0.07 0.05 0.05 0.06 0.06 0.06 0.10 0.13 0.14 0.15 0.17 0.22 0.28 0.36 0.45 0.48
0.04 0.05 0.06 0.06 0.06 0.06 0.06 0.06 0.05 0.04 0.05 0.06 0.05 0.06 0.08 0.11 0.14 0.20 0.29 0.35 0.39 0.42
0.07 0.08 0.07 0.07 0.06 0.05 0.05 0.05 0.04 0.05 0.05 0.07 0.08 0.10 0.11 0.11 0.11 0.10 0.10 0.13 0.15 0.22
0.06 0.08 0.07 0.06 0.07 0.05 0.05 0.04 0.04 0.08 0.14 0.16 0.17 0.20 0.19 0.19 0.20 0.21 0.25 0.26 0.31 0.37
0.05 0.06 0.08 0.09 0.09 0.09 0.09 0.10 0.10 0.13 0.14 0.17 0.21 0.37 0.31 0.25 0.26 0.29 0.31 0.34 0.37 0.41
0.08 0.09 0.12 0.14 0.16 0.14 0.12 0.15 0.24 0.25 0.20 0.16 0.15 0.29 0.24 0.22 0.20 0.23 0.25 0.25 0.23 0.20
0.47 0.39 0.39 0.41 0.40 0.32 0.30 0.29 0.25 0.27 0.37 0.45 0.54 0.51 0.36 0.28 0.20 0.19 0.17 0.15 0.13 0.09
0.66 0.62 0.87 1.01 0.86 0.75 0.73 0.68 0.77 0.64 0.55 0.66 0.74 0.61 0.47 0.30 0.22 0.18 0.13 0.07 0.02 0.01
0.78 0.64 0.75 0.70 0.76 0.71 0.63 0.68 0.66 0.70 0.57 0.52 0.48 0.35 0.27 0.20 0.12 0.06 0.01 0.00 0.00 0.02
0.55 0.71 0.67 0.69 0.53 0.61 0.53 0.41 0.37 0.33 0.30 0.21 0.12 0.04 0.02 0.01 0.01 0.00 0.01 0.01 0.00 0.00

GFSNIL_prec_precacc_096.txt.gz
Total_Precipitation_Accumulation
0.96 1.25 1.26 1.21 1.24 1.28 1.25 1.36 1.34 1.24 1.12 0.97 0.94 0.95 0.94 0.93 0.94 0.94 0.95 0.95 0.85 0.79
0.28 0.37 0.52 0.68 0.74 0.91 1.15 1.08 1.12 1.12 1.02 0.84 0.72 0.63 0.64 0.62 0.56 0.58 0.62 0.53 0.46 0.41
0.06 0.09 0.14 0.17 0.18 0.23 0.39 0.50 0.55 0.62 0.65 0.66 0.71 0.78 0.73 0.62 0.58 0.54 0.51 0.52 0.58 0.57
0.04 0.06 0.07 0.07 0.05 0.05 0.07 0.08 0.09 0.11 0.14 0.16 0.19 0.31 0.45 0.55 0.63 0.69 0.72 0.80 0.90 0.95
0.03 0.04 0.05 0.05 0.07 0.07 0.07 0.05 0.05 0.06 0.06 0.06 0.10 0.13 0.14 0.16 0.18 0.24 0.30 0.40 0.50 0.54
0.04 0.05 0.06 0.06 0.06 0.06 0.06 0.06 0.05 0.04 0.05 0.06 0.05 0.06 0.08 0.11 0.14 0.20 0.29 0.36 0.40 0.42
0.07 0.08 0.07 0.07 0.06 0.05 0.05 0.05 0.04 0.05 0.05 0.07 0.08 0.10 0.11 0.11 0.11 0.10 0.10 0.13 0.15 0.22
0.06 0.08 0.07 0.06 0.07 0.05 0.05 0.04 0.04 0.08 0.14 0.16 0.17 0.20 0.19 0.19 0.20 0.21 0.25 0.26 0.31 0.37
0.05 0.06 0.08 0.09 0.09 0.09 0.09 0.10 0.10 0.13 0.14 0.17 0.21 0.37 0.31 0.25 0.26 0.29 0.31 0.34 0.37 0.41
0.08 0.09 0.12 0.14 0.16 0.14 0.12 0.15 0.24 0.25 0.20 0.16 0.15 0.29 0.24 0.22 0.20 0.23 0.25 0.25 0.23 0.20
0.47 0.39 0.39 0.41 0.40 0.32 0.30 0.29 0.25 0.27 0.37 0.45 0.54 0.51 0.36 0.28 0.20 0.19 0.17 0.15 0.13 0.09
0.66 0.62 0.87 1.01 0.86 0.75 0.73 0.68 0.77 0.64 0.55 0.66 0.74 0.61 0.47 0.30 0.22 0.18 0.13 0.07 0.02 0.01
0.78 0.64 0.75 0.70 0.76 0.71 0.63 0.68 0.66 0.70 0.57 0.52 0.48 0.35 0.27 0.20 0.12 0.06 0.02 0.00 0.00 0.02
0.55 0.71 0.67 0.69 0.53 0.61 0.53 0.41 0.37 0.33 0.30 0.21 0.12 0.04 0.02 0.01 0.01 0.00 0.01 0.01 0.00 0.00

GFSNIL_prec_precacc_099.txt.gz
Total_Precipitation_Accumulation
1.04 1.27 1.28 1.22 1.26 1.28 1.31 1.49 1.79 1.59 1.38 1.29 1.24 1.16 1.10 1.10 1.18 1.17 1.14 1.13 1.01 0.94
0.28 0.38 0.52 0.68 0.75 0.93 1.22 1.17 1.26 1.30 1.19 1.06 0.98 0.89 0.84 0.78 0.70 0.76 0.82 0.79 0.74 0.68
0.06 0.09 0.14 0.17 0.18 0.23 0.40 0.55 0.66 0.72 0.72 0.78 0.83 0.90 0.89 0.81 0.82 0.82 0.72 0.71 0.78 0.78
0.04 0.06 0.07 0.07 0.05 0.05 0.07 0.08 0.10 0.12 0.15 0.17 0.22 0.38 0.54 0.65 0.81 0.92 0.98 1.11 1.18 1.21
0.03 0.04 0.05 0.05 0.07 0.07 0.07 0.05 0.05 0.06 0.06 0.06 0.10 0.13 0.15 0.17 0.21 0.28 0.36 0.47 0.59 0.64
0.04 0.05 0.06 0.06 0.06 0.06 0.06 0.06 0.05 0.04 0.05 0.06 0.05 0.06 0.08 0.11 0.14 0.20 0.29 0.36 0.41 0.44
0.07 0.08 0.07 0.07 0.06 0.05 0.05 0.05 0.04 0.05 0.05 0.07 0.08 0.10 0.11 0.11 0.11 0.10 0.10 0.13 0.15 0.22
0.06 0.08 0.07 0.06 0.07 0.05 0.05 0.04 0.04 0.08 0.14 0.16 0.17 0.20 0.19 0.19 0.20 0.21 0.25 0.26 0.31 0.37
0.05 0.06 0.08 0.09 0.09 0.09 0.09 0.10 0.10 0.13 0.14 0.17 0.21 0.37 0.31 0.25 0.26 0.29 0.31 0.34 0.37 0.41
0.08 0.09 0.12 0.14 0.16 0.14 0.12 0.15 0.24 0.25 0.20 0.16 0.15 0.29 0.24 0.22 0.20 0.23 0.25 0.25 0.23 0.20
0.47 0.39 0.39 0.41 0.40 0.32 0.30 0.29 0.25 0.27 0.37 0.45 0.54 0.51 0.36 0.28 0.20 0.19 0.17 0.15 0.13 0.09
0.66 0.62 0.87 1.01 0.86 0.75 0.73 0.68 0.77 0.64 0.55 0.66 0.74 0.61 0.47 0.30 0.22 0.18 0.13 0.07 0.02 0.01
0.78 0.64 0.75 0.70 0.76 0.71 0.63 0.68 0.66 0.70 0.57 0.52 0.48 0.35 0.27 0.20 0.12 0.06 0.02 0.00 0.00 0.02
0.55 0.71 0.67 0.69 0.53 0.61 0.53 0.41 0.37 0.33 0.30 0.21 0.12 0.04 0.02 0.01 0.01 0.00 0.01 0.01 0.00 0.00

GFSNIL_prec_precacc_102.txt.gz
Total_Precipitation_Accumulation
1.33 1.61 1.45 1.35 1.30 1.29 1.33 1.50 1.83 1.72 1.67 1.57 1.44 1.35 1.30 1.29 1.37 1.33 1.25 1.19 1.06 1.00
0.30 0.41 0.58 0.71 0.75 0.93 1.22 1.18 1.31 1.40 1.29 1.21 1.12 1.04 1.03 0.98 0.92 1.00 0.98 0.88 0.83 0.78
0.07 0.10 0.14 0.17 0.18 0.23 0.40 0.55 0.68 0.78 0.79 0.84 0.89 0.98 1.01 0.94 0.94 1.01 0.96 0.92 0.94 0.91
0.04 0.06 0.07 0.07 0.05 0.05 0.07 0.08 0.10 0.12 0.15 0.17 0.24 0.40 0.59 0.73 0.89 1.05 1.14 1.36 1.57 1.62
0.03 0.04 0.05 0.05 0.07 0.07 0.07 0.05 0.05 0.06 0.06 0.06 0.10 0.13 0.15 0.17 0.22 0.30 0.40 0.53 0.69 0.76
0.04 0.05 0.06 0.06 0.06 0.06 0.06 0.06 0.05 0.04 0.05 0.06 0.05 0.06 0.08 0.11 0.14 0.20 0.29 0.36 0.41 0.44
0.07 0.08 0.07 0.07 0.06 0.05 0.05 0.05 0.04 0.05 0.05 0.07 0.08 0.10 0.11 0.11 0.11 0.10 0.10 0.13 0.15 0.22
0.06 0.08 0.07 0.06 0.07 0.05 0.05 0.04 0.04 0.08 0.14 0.16 0.17 0.20 0.19 0.19 0.20 0.21 0.25 0.26 0.31 0.37
0.05 0.06 0.08 0.09 0.09 0.09 0.09 0.10 0.10 0.13 0.14 0.17 0.21 0.37 0.31 0.25 0.26 0.29 0.31 0.34 0.37 0.41
0.08 0.09 0.12 0.14 0.16 0.14 0.12 0.15 0.24 0.25 0.20 0.16 0.15 0.29 0.24 0.22 0.20 0.23 0.25 0.25 0.23 0.20
0.47 0.39 0.39 0.41 0.40 0.32 0.30 0.29 0.25 0.27 0.37 0.45 0.54 0.51 0.36 0.28 0.20 0.19 0.17 0.15 0.13 0.09
0.66 0.62 0.87 1.01 0.86 0.75 0.73 0.68 0.77 0.64 0.55 0.66 0.74 0.61 0.47 0.30 0.22 0.18 0.13 0.07 0.02 0.01
0.78 0.64 0.75 0.70 0.76 0.71 0.63 0.68 0.66 0.70 0.57 0.52 0.48 0.35 0.27 0.20 0.12 0.06 0.02 0.00 0.00 0.02
0.55 0.71 0.67 0.69 0.53 0.61 0.53 0.41 0.37 0.33 0.30 0.21 0.12 0.04 0.02 0.01 0.01 0.00 0.01 0.01 0.00 0.00

GFSNIL_prec_precacc_105.txt.gz
Total_Precipitation_Accumulation
1.34 1.71 1.71 1.58 1.51 1.45 1.37 1.53 1.86 1.76 1.72 1.73 1.68 1.63 1.59 1.60 1.64 1.55 1.43 1.37 1.19 1.09
0.32 0.44 0.65 0.78 0.79 0.95 1.22 1.18 1.31 1.42 1.33 1.31 1.31 1.25 1.28 1.25 1.17 1.18 1.21 1.12 1.04 0.93
0.07 0.10 0.14 0.17 0.18 0.23 0.40 0.55 0.68 0.79 0.81 0.88 0.92 1.06 1.13 1.09 1.10 1.16 1.17 1.17 1.15 1.09
0.04 0.06 0.07 0.07 0.05 0.05 0.07 0.08 0.10 0.12 0.15 0.17 0.24 0.42 0.63 0.78 0.94 1.11 1.23 1.47 1.69 1.75
0.03 0.04 0.05 0.05 0.07 0.07 0.07 0.05 0.05 0.06 0.06 0.06 0.10 0.13 0.15 0.17 0.22 0.30 0.40 0.55 0.71 0.78
0.04 0.05 0.06 0.06 0.06 0.06 0.06 0.06 0.05 0.04 0.05 0.06 0.05 0.06 0.08 0.11 0.14 0.20 0.29 0.36 0.41 0.44
0.07 0.08 0.07 0.07 0.06 0.05 0.05 0.05 0.04 0.05 0.05 0.07 0.08 0.10 0.11 0.11 0.11 0.10 0.10 0.13 0.15 0.22
0.06 0.08 0.07 0.06 0.07 0.05 0.05 0.04 0.04 0.08 0.14 0.16 0.17 0.20 0.19 0.19 0.20 0.21 0.25 0.26 0.31 0.37
0.05 0.06 0.08 0.09 0.09 0.09 0.09 0.10 0.10 0.13 0.14 0.17 0.21 0.37 0.31 0.25 0.26 0.29 0.31 0.34 0.37 0.41
0.08 0.09 0.12 0.14 0.16 0.14 0.12 0.15 0.24 0.25 0.20 0.16 0.15 0.29 0.24 0.22 0.20 0.23 0.25 0.25 0.23 0.20
0.47 0.39 0.39 0.41 0.40 0.32 0.30 0.29 0.25 0.27 0.37 0.45 0.54 0.51 0.36 0.28 0.20 0.19 0.17 0.15 0.13 0.09
0.66 0.62 0.87 1.01 0.86 0.75 0.73 0.68 0.77 0.64 0.55 0.66 0.74 0.61 0.47 0.30 0.22 0.18 0.13 0.07 0.02 0.01
0.78 0.64 0.75 0.70 0.76 0.71 0.63 0.68 0.66 0.70 0.57 0.52 0.48 0.35 0.27 0.20 0.12 0.06 0.02 0.00 0.00 0.02
0.55 0.71 0.67 0.69 0.53 0.61 0.53 0.41 0.37 0.33 0.30 0.21 0.12 0.04 0.02 0.01 0.01 0.00 0.01 0.01 0.00 0.00

GFSNIL_prec_precacc_108.txt.gz
Total_Precipitation_Accumulation
1.34 1.71 1.71 1.58 1.52 1.47 1.41 1.55 1.87 1.77 1.74 1.78 1.73 1.71 1.71 1.73 1.79 1.69 1.58 1.56 1.44 1.34
0.32 0.44 0.65 0.78 0.82 0.97 1.23 1.18 1.31 1.42 1.33 1.32 1.32 1.29 1.37 1.37 1.35 1.46 1.49 1.33 1.23 1.14
0.07 0.10 0.14 0.17 0.18 0.23 0.40 0.55 0.68 0.79 0.81 0.88 0.93 1.07 1.17 1.21 1.29 1.38 1.34 1.30 1.32 1.28
0.04 0.06 0.07 0.07 0.05 0.05 0.07 0.08 0.10 0.12 0.15 0.17 0.24 0.42 0.63 0.79 0.97 1.17 1.32 1.56 1.78 1.86
0.03 0.04 0.05 0.05 0.07 0.07 0.07 0.05 0.05 0.06 0.06 0.06 0.10 0.13 0.15 0.17 0.22 0.30 0.40 0.55 0.71 0.79
0.04 0.05 0.06 0.06 0.06 0.06 0.06 0.06 0.05 0.04 0.05 0.06 0.05 0.06 0.08 0.11 0.14 0.20 0.29 0.36 0.41 0.44
0.07 0.08 0.07 0.07 0.06 0.05 0.05 0.05 0.04 0.05 0.05 0.07 0.08 0.10 0.11 0.11 0.11 0.10 0.10 0.13 0.15 0.22
0.06 0.08 0.07 0.06 0.07 0.05 0.05 0.04 0.04 0.08 0.14 0.16 0.17 0.20 0.19 0.19 0.20 0.21 0.25 0.26 0.31 0.37
0.05 0.06 0.08 0.09 0.09 0.09 0.09 0.10 0.10 0.13 0.14 0.17 0.21 0.37 0.31 0.25 0.26 0.29 0.31 0.34 0.37 0.41
0.08 0.09 0.12 0.14 0.16 0.14 0.12 0.15 0.24 0.25 0.20 0.16 0.15 0.29 0.24 0.22 0.20 0.23 0.25 0.25 0.23 0.20
0.47 0.39 0.39 0.41 0.40 0.32 0.30 0.29 0.25 0.27 0.37 0.45 0.54 0.51 0.36 0.28 0.20 0.19 0.17 0.15 0.13 0.09
0.66 0.62 0.87 1.01 0.86 0.75 0.73 0.68 0.77 0.64 0.55 0.66 0.74 0.61 0.47 0.30 0.22 0.18 0.13 0.07 0.02 0.01
0.78 0.64 0.75 0.70 0.76 0.71 0.63 0.68 0.66 0.70 0.57 0.52 0.48 0.35 0.27 0.20 0.12 0.06 0.02 0.00 0.00 0.02
0.55 0.71 0.67 0.69 0.53 0.61 0.53 0.41 0.37 0.33 0.30 0.21 0.12 0.04 0.02 0.01 0.01 0.00 0.01 0.01 0.00 0.00

GFSNIL_prec_precacc_111.txt.gz
Total_Precipitation_Accumulation
1.34 1.71 1.71 1.58 1.52 1.47 1.41 1.55 1.87 1.77 1.74 1.78 1.73 1.71 1.72 1.76 1.81 1.71 1.62 1.63 1.55 1.49
0.32 0.44 0.65 0.78 0.82 0.97 1.23 1.18 1.31 1.42 1.33 1.32 1.32 1.29 1.37 1.38 1.37 1.49 1.53 1.42 1.35 1.29
0.07 0.10 0.14 0.17 0.18 0.23 0.40 0.55 0.68 0.79 0.81 0.88 0.93 1.07 1.17 1.21 1.29 1.39 1.40 1.42 1.46 1.47
0.04 0.06 0.07 0.07 0.05 0.05 0.07 0.08 0.10 0.12 0.15 0.17 0.24 0.42 0.63 0.79 0.97 1.17 1.32 1.59 1.84 1.95
0.03 0.04 0.05 0.05 0.07 0.07 0.07 0.05 0.05 0.06 0.06 0.06 0.10 0.13 0.15 0.17 0.22 0.30 0.40 0.55 0.71 0.79
0.04 0.05 0.06 0.06 0.06 0.06 0.06 0.06 0.05 0.04 0.05 0.06 0.05 0.06 0.08 0.11 0.14 0.20 0.29 0.36 0.41 0.44
0.07 0.08 0.07 0.07 0.06 0.05 0.05 0.05 0.04 0.05 0.05 0.07 0.08 0.10 0.11 0.11 0.11 0.10 0.10 0.13 0.15 0.22
0.06 0.08 0.07 0.06 0.07 0.05 0.05 0.04 0.04 0.08 0.14 0.16 0.17 0.20 0.19 0.19 0.20 0.21 0.25 0.26 0.31 0.37
0.05 0.06 0.08 0.09 0.09 0.09 0.09 0.10 0.10 0.13 0.14 0.17 0.21 0.37 0.31 0.25 0.26 0.29 0.31 0.34 0.37 0.41
0.08 0.09 0.12 0.14 0.16 0.14 0.12 0.15 0.24 0.25 0.20 0.16 0.15 0.29 0.24 0.22 0.20 0.23 0.25 0.25 0.23 0.20
0.47 0.39 0.39 0.41 0.40 0.32 0.30 0.29 0.25 0.27 0.37 0.45 0.54 0.51 0.36 0.28 0.20 0.19 0.17 0.15 0.13 0.09
0.66 0.62 0.87 1.01 0.86 0.75 0.73 0.68 0.77 0.64 0.55 0.66 0.74 0.61 0.47 0.30 0.22 0.18 0.13 0.07 0.02 0.01
0.78 0.64 0.75 0.70 0.76 0.71 0.63 0.68 0.66 0.70 0.57 0.52 0.48 0.35 0.27 0.20 0.12 0.06 0.02 0.00 0.00 0.02
0.55 0.71 0.67 0.69 0.53 0.61 0.53 0.41 0.37 0.33 0.30 0.21 0.12 0.04 0.02 0.01 0.01 0.00 0.01 0.01 0.00 0.00

GFSNIL_prec_precacc_117.txt.gz
Total_Precipitation_Accumulation
1.34 1.71 1.71 1.58 1.52 1.47 1.41 1.55 1.87 1.77 1.74 1.78 1.73 1.71 1.72 1.76 1.81 1.71 1.62 1.63 1.56 1.50
0.32 0.44 0.65 0.78 0.82 0.97 1.23 1.18 1.31 1.42 1.33 1.32 1.32 1.29 1.37 1.38 1.37 1.49 1.53 1.42 1.35 1.29
0.07 0.10 0.14 0.17 0.18 0.23 0.40 0.55 0.68 0.79 0.81 0.88 0.93 1.07 1.17 1.21 1.29 1.39 1.40 1.42 1.46 1.47
0.04 0.06 0.07 0.07 0.05 0.05 0.07 0.08 0.10 0.12 0.15 0.17 0.24 0.42 0.63 0.79 0.97 1.17 1.32 1.59 1.84 1.95
0.03 0.04 0.05 0.05 0.07 0.07 0.07 0.05 0.05 0.06 0.06 0.06 0.10 0.13 0.15 0.17 0.22 0.30 0.40 0.55 0.71 0.79
0.04 0.05 0.06 0.06 0.06 0.06 0.06 0.06 0.05 0.04 0.05 0.06 0.05 0.06 0.08 0.11 0.14 0.20 0.29 0.36 0.41 0.44
0.07 0.08 0.07 0.07 0.06 0.05 0.05 0.05 0.04 0.05 0.05 0.07 0.08 0.10 0.11 0.11 0.11 0.10 0.10 0.13 0.15 0.22
0.06 0.08 0.07 0.06 0.07 0.05 0.05 0.04 0.04 0.08 0.14 0.16 0.17 0.20 0.19 0.19 0.20 0.21 0.25 0.26 0.31 0.37
0.05 0.06 0.08 0.09 0.09 0.09 0.09 0.10 0.10 0.13 0.14 0.17 0.21 0.37 0.31 0.25 0.26 0.29 0.31 0.34 0.37 0.41
0.08 0.09 0.12 0.14 0.16 0.14 0.12 0.15 0.24 0.25 0.20 0.16 0.15 0.29 0.24 0.22 0.20 0.23 0.25 0.25 0.23 0.20
0.47 0.39 0.39 0.41 0.40 0.32 0.30 0.29 0.25 0.27 0.37 0.45 0.54 0.51 0.36 0.28 0.20 0.19 0.17 0.15 0.13 0.09
0.66 0.62 0.87 1.01 0.86 0.75 0.73 0.68 0.77 0.64 0.55 0.66 0.74 0.61 0.47 0.30 0.22 0.18 0.13 0.07 0.02 0.01
0.78 0.64 0.75 0.70 0.76 0.71 0.63 0.68 0.66 0.70 0.57 0.52 0.48 0.35 0.27 0.20 0.12 0.06 0.02 0.00 0.00 0.02
0.55 0.71 0.67 0.69 0.53 0.61 0.53 0.41 0.37 0.33 0.30 0.21 0.12 0.04 0.02 0.01 0.01 0.00 0.01 0.01 0.00 0.00